Location: Kershaw
(34.5481°N, 80.5823°W)
Time: 00:33:41
(UTC+00:00)

Altair - Pass Details

Date: 03 October 2022
Orbit: 1501 x 1682 km, 47.2° (Epoch: 05 December)

Event Time Altitude Azimuth Distance (km) Brightness Sun altitude
Exits shadow 08:27:57 35° 169° (SSE) 2,334 8.3 -35.3°
Maximum altitude 08:30:50 43° 131° (SE) 2,113 8.2 -34.7°
Drops below altitude 10° 08:39:55 10° 64° (ENE) 3,879 10.4 -33.0°
Sets 08:43:17 0° 58° (ENE) 4,889 11.2 -32.3°
